Regional Weather Roundup
Issued by NWS Cleveland, OH

Home | Current Version | Previous Version | Text Only | Print | Product List | Glossary Off
Versions: 1 2 3 4 5 6 7 8 9 10 11 12 13 14 15 16 17 18 19 20 21 22 23 24 25 26 27 28 29 30 31 32 33 34 35 36 37 38 39 40 41 42 43 44 45 46 47 48 49 50

000
ASUS41 KCLE 252210
RWRCLE
OHIO REGIONAL WEATHER ROUNDUP
NATIONAL WEATHER SERVICE CLEVELAND, OH
600 PM EDT THU AUG 25 2016

NOTE: "FAIR" INDICATES FEW OR NO CLOUDS BELOW 12,000 FEET WITH NO
SIGNIFICANT WEATHER AND/OR OBSTRUCTIONS TO VISIBILITY.

OHZ001>008-015>018-024>027-034-035-043-044-252300-
   NORTHWEST OHIO

CITY           SKY/WX    TMP DP  RH WIND       PRES   REMARKS
DEFIANCE       PTSUNNY   85  69  58 VRB7      30.00S
FINDLAY        PTSUNNY   86  67  52 W22       30.00S
TOLEDO EXPRESS PTSUNNY   84  70  62 W14G22    29.98S
TOLEDO EXEC    MOSUNNY   87  70  56 W17G25    29.98S HX  92
LIMA           SUNNY     84  72  67 W16G24    30.02F
$$

OHZ009>014-019>023-028>033-038-089-252300-
   NORTHEAST OHIO

CITY           SKY/WX    TMP DP  RH WIND       PRES   REMARKS
CLE-HOPKINS    HVY RAIN  83  71  67 SW17G39   29.99S SQUALL
CLE-LAKEFRONT  TSTM      80  70  71 SW15G44   29.95R
CUY CO. ARPT   PTSUNNY   88  72  58 W14       29.97S HX  94
LORAIN-ELYRIA  CLOUDY    82  72  71 SW7       29.97F
ASHTABULA      CLOUDY    79  75  87 CALM      29.97S
AKRON-CANTON   MOSUNNY   89  70  53 SW9       30.00F HX  94
WOOSTER        MOSUNNY   86  72  62 SW14G21   30.00F HX  92
MANSFIELD      PTSUNNY   86  71  60 SW10G22   30.03S HX  91
YOUNGSTOWN     LGT RAIN  85  70  60 SW6       29.98F
$$

OHZ042-051>053-060>062-070>072-077>081-252300-
  SOUTHWEST OHIO

CITY           SKY/WX    TMP DP  RH WIND       PRES   REMARKS
CINC-COVINGTON MOSUNNY   89  73  59 SW8       30.06F HX  97
CINC-LUNKEN    MOSUNNY   88  73  61 SW12      30.04F HX  95
HAMILTON       MOSUNNY   89  71  55 W8        30.05F HX  95
DAYTON         MOSUNNY   87  72  60 SW17      30.05F HX  93
WRIGHT-PAT AFB MOSUNNY   88  73  60 SW14      30.03F HX  96
DAYTON GENERAL MOSUNNY   88  69  53 W12       30.05S HX  92
WILMINGTON     MOSUNNY   88  73  61 SW13      30.06S HX  95
$$

OHZ036-037-039>041-045>050-054>059-063>069-073>076-082>088-252300-
  CENTRAL AND SOUTHEAST OHIO

CITY           SKY/WX    TMP DP  RH WIND       PRES   REMARKS
COLUMBUS       MOSUNNY   86  72  62 W18       30.02F HX  92
OSU AIRPORT    MOSUNNY   88  75  65 W15       30.03S HX  97
BOLTON FIELD   SUNNY     88  75  66 SW12      30.04F HX  97
RICKENBACK AFB SUNNY     88  75  64 W14       30.03S HX  97
NEWARK         LGT RAIN  85  75  72 W13       30.03S HX  93
MARION         PTSUNNY   87  69  54 W15G23    30.02S HX  91
LANCASTER      SUNNY     87  74  64 W10       30.04F HX  95
ZANESVILLE     MOSUNNY   88  74  63 W9        30.03F HX  96
NEW PHILLY     CLOUDY    85  70  60 S5        30.02F
$$



USA.gov is the U.S. government's official web portal to all federal, state and local government web resources and services.